Glennallen, AK

1:25 PM AKST on February 26, 2017 (GMT -0900)
Gulkana

Weather History for PAGK - January, 2014

Change the Weather History Date:

Friday, January 17, 2014

  Actual Average Record
Temperature  
Mean Temperature 36 °F -  
Max Temperature 43 °F 5 °F 43 °F (2014)
Min Temperature 30 °F -11 °F -55 °F (1973)
Degree Days  
Heating Degree Days 28    
Moisture  
Dew Point 32 °F    
Average Humidity 84    
Maximum Humidity 96    
Minimum Humidity 64    
Precipitation  
Precipitation 0.00 in - - ()
Sea Level Pressure  
Sea Level Pressure 29.44 in    
Wind  
Wind Speed 6 mph (SE)    
Max Wind Speed 17 mph    
Max Gust Speed 17 mph    
Averages and records for this station are not official NWS values.
T = Trace of Precipitation, MM = Missing Value Source: NWS Daily Summary

Daily Weather History Graph

Daily Weather History Graph

Search for Another Location

Airport or City:

Trip Planner

Search our weather history database for the weather conditions in past years. The results will help you decide how hot, cold, wet, or windy it might be!

Date:

Astronomy

Jan. 17, 2014 Rise Set
Actual Time 9:43 AM AKST 4:01 PM AKST
Civil Twilight 8:45 AM AKST 4:59 PM AKST
Nautical Twilight 7:47 AM AKST 5:57 PM AKST
Astronomical Twilight 6:53 AM AKST 6:51 PM AKST
Moon 6:51 PM AKST (1/17) 9:27 AM AKST (1/17)
Length of Visible Light 8h 14m
Length of Day
6h 18m
Full, 98% of the Moon is Illuminated
Jan 17
Full
Jan 23
Last Quarter
Jan 30
New
Feb 6
First Quarter
Feb 14
Full

Hourly Weather History & Observations

Time (AKST) Temp. Windchill Dew Point Humidity Pressure Visibility Wind Dir Wind Speed Gust Speed Precip Events Conditions
12:53 AM 30.9 °F 27.5 °F 28.9 °F 92% 29.79 in - NW 3.5 mph - N/A   Clear
1:53 AM 33.1 °F 27.7 °F 30.9 °F 92% 29.77 in - North 5.8 mph - N/A   Clear
3:53 AM 33.1 °F 24.9 °F 30.9 °F 92% 29.70 in - South 10.4 mph - N/A   Clear
4:53 AM 33.1 °F 26.1 °F 30.9 °F 92% 29.67 in - ESE 8.1 mph - N/A   Overcast
5:53 AM 32.0 °F - 30.9 °F 96% 29.63 in - Calm Calm - N/A   Mostly Cloudy
6:53 AM 36.0 °F 29.6 °F 32.0 °F 86% 29.57 in - East 8.1 mph 17.3 mph N/A   Overcast
7:53 AM 34.0 °F 28.8 °F 30.9 °F 89% 29.52 in - ENE 5.8 mph - N/A   Overcast
8:53 AM 32.0 °F - 30.0 °F 92% 29.49 in - Calm Calm - N/A   Scattered Clouds
9:53 AM 36.0 °F 30.3 °F 30.9 °F 82% 29.48 in - SE 6.9 mph - N/A   Overcast
10:53 AM 37.0 °F 29.8 °F 32.0 °F 82% 29.45 in - South 10.4 mph - N/A   Overcast
11:53 AM 37.9 °F 33.5 °F 34.0 °F 86% 29.42 in - SE 5.8 mph - N/A   Overcast
12:53 PM 37.9 °F 34.4 °F 34.0 °F 86% 29.37 in - East 4.6 mph - N/A   Mostly Cloudy
1:53 PM 39.9 °F 32.1 °F 34.0 °F 79% 29.34 in - SSE 13.8 mph - N/A   Partly Cloudy
2:53 PM 42.1 °F 34.2 °F 34.0 °F 73% 29.32 in - South 16.1 mph - N/A   Mostly Cloudy
3:53 PM 41.0 °F 33.1 °F 33.1 °F 73% 29.34 in - South 15.0 mph - N/A   Overcast
4:53 PM 39.0 °F 31.4 °F 33.1 °F 79% 29.32 in - SSE 12.7 mph - N/A   Partly Cloudy
5:53 PM 37.9 °F 28.5 °F 32.0 °F 79% 29.31 in - South 17.3 mph - N/A   Clear
6:53 PM 39.0 °F 31.8 °F 33.1 °F 79% 29.30 in - South 11.5 mph - N/A   Mostly Cloudy
7:53 PM 37.9 °F 30.9 °F 32.0 °F 79% 29.29 in - South 10.4 mph - N/A   Overcast
8:53 PM 37.9 °F 34.4 °F 33.1 °F 83% 29.26 in - East 4.6 mph - 0.00 in Rain Light Rain
9:53 PM 39.0 °F 34.0 °F 33.1 °F 79% 29.25 in - SE 6.9 mph - 0.00 in   Overcast
10:53 PM 37.9 °F 34.4 °F 33.1 °F 83% 29.22 in - ENE 4.6 mph - N/A   Overcast
11:53 PM 37.0 °F 34.5 °F 33.1 °F 86% 29.20 in - East 3.5 mph - 0.00 in   Overcast